When you browse on this site, cookies collect data to enhance your experience and personalize the content and advertising you see.
Visit our Privacy Policy to learn more. By continuing to use the site, you agree to this use of cookies and data.
  • en Suisse
  • Liste des pays
  • À 7 jours
  • Température de l'eau
  • Carte météo
  • Widgets météo
  • user-avatar
    Se connecter

    Météo par heure à Liège

    Ce jour, 14 Octobre, Lundi

    Heure Température Précipitation Vent Pression Humidité
    00:00 +15°C° 0 mm 1 m/s 750 mmHg 95%
    01:00 +15°C° 0 mm 1 m/s 750 mmHg 95%
    02:00 +13°C° 0 mm 0 m/s 750 mmHg 95%
    03:00 +13°C° 0 mm 0 m/s 750 mmHg 95%
    04:00 +14°C° 0 mm 1 m/s 750 mmHg 95%
    05:00 +14°C° 0 mm 1 m/s 750 mmHg 95%
    06:00 +14°C° 0 mm 1 m/s 750 mmHg 94%
    07:00 +16°C° 0 mm 2 m/s 750 mmHg 90%
    08:00 +17°C° 0 mm 3 m/s 749 mmHg 85%
    09:00 +19°C° 0 mm 4 m/s 749 mmHg 80%
    10:00 +20°C° 0 mm 4 m/s 749 mmHg 75%
    11:00 +21°C° 0 mm 5 m/s 749 mmHg 70%
    12:00 +22°C° 0 mm 5 m/s 748 mmHg 64%
    13:00 +22°C° 0 mm 5 m/s 748 mmHg 66%
    14:00 +22°C° 0 mm 5 m/s 747 mmHg 68%
    15:00 +22°C° 0 mm 4 m/s 747 mmHg 70%
    16:00 +21°C° 0 mm 5 m/s 746 mmHg 70%
    17:00 +20°C° 0 mm 5 m/s 746 mmHg 70%
    18:00 +20°C° 0 mm 5 m/s 746 mmHg 71%
    19:00 +19°C° 0 mm 5 m/s 746 mmHg 73%
    20:00 +19°C° 0 mm 4 m/s 746 mmHg 75%
    21:00 +18°C° 0 mm 3 m/s 747 mmHg 77%
    22:00 +18°C° 0 mm 3 m/s 746 mmHg 78%
    23:00 +17°C° 0 mm 4 m/s 746 mmHg 80%

    Demain, 15 Octobre, Mardi

    Heure Température Précipitation Vent Pression Humidité
    00:00 +17°C° 0 mm 4 m/s 746 mmHg 81%
    01:00 +17°C° 0 mm 3 m/s 746 mmHg 81%
    02:00 +17°C° 0 mm 3 m/s 745 mmHg 82%
    03:00 +16°C° 0 mm 3 m/s 745 mmHg 82%
    04:00 +16°C° 0.3 mm 3 m/s 745 mmHg 84%
    05:00 +16°C° 0.3 mm 3 m/s 744 mmHg 86%
    06:00 +16°C° 0.3 mm 3 m/s 744 mmHg 89%
    07:00 +16°C° 0.4 mm 3 m/s 744 mmHg 89%
    08:00 +16°C° 0.4 mm 3 m/s 745 mmHg 90%
    09:00 +16°C° 0.4 mm 3 m/s 745 mmHg 91%
    10:00 +14°C° 1.3 mm 3 m/s 745 mmHg 92%
    11:00 +14°C° 1.3 mm 3 m/s 745 mmHg 93%
    12:00 +14°C° 1.3 mm 3 m/s 745 mmHg 94%
    13:00 +14°C° 0.5 mm 3 m/s 745 mmHg 93%
    14:00 +14°C° 0.5 mm 4 m/s 745 mmHg 91%
    15:00 +14°C° 0.5 mm 4 m/s 745 mmHg 90%
    16:00 +13°C° 0.2 mm 4 m/s 746 mmHg 90%
    17:00 +13°C° 0.2 mm 3 m/s 746 mmHg 90%
    18:00 +12°C° 0.2 mm 3 m/s 746 mmHg 90%
    19:00 +12°C° 0 mm 3 m/s 747 mmHg 89%
    20:00 +11°C° 0 mm 3 m/s 747 mmHg 87%
    21:00 +11°C° 0 mm 3 m/s 748 mmHg 86%
    22:00 +11°C° 0 mm 4 m/s 748 mmHg 86%
    23:00 +10°C° 0 mm 4 m/s 748 mmHg 87%

    Après-demain, 16 Octobre, Mercredi

    Heure Température Précipitation Vent Pression Humidité
    00:00 +10°C° 0 mm 4 m/s 748 mmHg 87%
    01:00 +8°C° 0 mm 4 m/s 748 mmHg 88%
    02:00 +8°C° 0 mm 5 m/s 748 mmHg 88%
    03:00 +8°C° 0 mm 5 m/s 748 mmHg 89%
    04:00 +8°C° 0 mm 5 m/s 748 mmHg 90%
    05:00 +8°C° 0 mm 5 m/s 748 mmHg 91%
    06:00 +8°C° 0 mm 5 m/s 748 mmHg 92%
    07:00 +9°C° 0 mm 6 m/s 748 mmHg 90%
    08:00 +10°C° 0 mm 6 m/s 748 mmHg 87%
    09:00 +11°C° 0 mm 7 m/s 748 mmHg 85%
    10:00 +11°C° 0.2 mm 7 m/s 748 mmHg 86%
    11:00 +11°C° 0.2 mm 7 m/s 748 mmHg 87%
    12:00 +11°C° 0.2 mm 7 m/s 748 mmHg 88%
    13:00 +11°C° 0.1 mm 6 m/s 748 mmHg 86%
    14:00 +13°C° 0.1 mm 6 m/s 748 mmHg 84%
    15:00 +13°C° 0.1 mm 6 m/s 748 mmHg 82%
    16:00 +13°C° 0 mm 5 m/s 748 mmHg 81%
    17:00 +13°C° 0 mm 5 m/s 748 mmHg 80%
    18:00 +13°C° 0 mm 4 m/s 748 mmHg 80%
    19:00 +13°C° 0.2 mm 5 m/s 748 mmHg 81%
    20:00 +13°C° 0.2 mm 5 m/s 748 mmHg 83%
    21:00 +13°C° 0.2 mm 5 m/s 748 mmHg 84%
    22:00 +13°C° 0.3 mm 5 m/s 748 mmHg 86%
    23:00 +11°C° 0.3 mm 6 m/s 748 mmHg 87%

    17 Octobre, Jeudi

    Heure Température Précipitation Vent Pression Humidité
    00:00 +11°C° 0.3 mm 6 m/s 748 mmHg 89%
    01:00 +11°C° 0.1 mm 6 m/s 748 mmHg 89%
    02:00 +11°C° 0.1 mm 6 m/s 748 mmHg 90%
    03:00 +11°C° 0.1 mm 6 m/s 748 mmHg 91%
    04:00 +13°C° 0.2 mm 6 m/s 748 mmHg 91%
    05:00 +13°C° 0.2 mm 6 m/s 748 mmHg 91%
    06:00 +13°C° 0.2 mm 6 m/s 748 mmHg 91%
    07:00 +13°C° 0.1 mm 5 m/s 749 mmHg 87%
    08:00 +13°C° 0.1 mm 5 m/s 750 mmHg 83%
    09:00 +13°C° 0.1 mm 4 m/s 750 mmHg 79%
    10:00 +13°C° 0.1 mm 5 m/s 751 mmHg 77%
    11:00 +13°C° 0.1 mm 5 m/s 751 mmHg 74%
    12:00 +13°C° 0.1 mm 5 m/s 751 mmHg 71%
    13:00 +13°C° 0 mm 5 m/s 751 mmHg 69%
    14:00 +13°C° 0 mm 4 m/s 751 mmHg 66%
    15:00 +14°C° 0 mm 4 m/s 751 mmHg 64%
    16:00 +12°C° 0 mm 3 m/s 751 mmHg 69%
    17:00 +11°C° 0 mm 3 m/s 752 mmHg 75%
    18:00 +9°C° 0 mm 3 m/s 752 mmHg 80%
    19:00 +9°C° 0 mm 3 m/s 752 mmHg 82%
    20:00 +9°C° 0 mm 3 m/s 752 mmHg 83%
    21:00 +9°C° 0 mm 3 m/s 752 mmHg 85%
    22:00 +10°C° 0 mm 4 m/s 752 mmHg 85%
    23:00 +10°C° 0 mm 4 m/s 751 mmHg 84%

    18 Octobre, Vendredi

    Heure Température Précipitation Vent Pression Humidité
    00:00 +11°C° 0 mm 4 m/s 751 mmHg 84%
    01:00 +11°C° 0.1 mm 4 m/s 751 mmHg 86%
    02:00 +12°C° 0.1 mm 5 m/s 750 mmHg 88%
    03:00 +12°C° 0.1 mm 5 m/s 750 mmHg 90%
    04:00 +12°C° 0.1 mm 5 m/s 749 mmHg 91%
    05:00 +12°C° 0.1 mm 5 m/s 749 mmHg 91%
    06:00 +12°C° 0.1 mm 5 m/s 749 mmHg 92%
    07:00 +12°C° 0 mm 5 m/s 749 mmHg 88%
    08:00 +13°C° 0 mm 6 m/s 749 mmHg 83%
    09:00 +13°C° 0 mm 6 m/s 749 mmHg 79%
    10:00 +14°C° 0 mm 6 m/s 749 mmHg 78%
    11:00 +14°C° 0 mm 5 m/s 749 mmHg 77%
    12:00 +14°C° 0 mm 5 m/s 749 mmHg 76%
    13:00 +14°C° 0 mm 5 m/s 748 mmHg 75%
    14:00 +14°C° 0 mm 5 m/s 748 mmHg 75%
    15:00 +15°C° 0 mm 5 m/s 748 mmHg 75%
    16:00 +14°C° 0 mm 5 m/s 748 mmHg 80%
    17:00 +12°C° 0 mm 4 m/s 748 mmHg 86%
    18:00 +11°C° 0 mm 3 m/s 748 mmHg 91%
    19:00 +11°C° 0 mm 3 m/s 748 mmHg 92%
    20:00 +11°C° 0 mm 3 m/s 748 mmHg 92%
    21:00 +10°C° 0 mm 3 m/s 748 mmHg 93%
    22:00 +10°C° 0 mm 3 m/s 748 mmHg 92%
    23:00 +10°C° 0 mm 3 m/s 747 mmHg 92%

    19 Octobre, Samedi

    Heure Température Précipitation Vent Pression Humidité
    00:00 +9°C° 0 mm 3 m/s 747 mmHg 92%
    01:00 +10°C° 0 mm 3 m/s 747 mmHg 92%
    02:00 +10°C° 0 mm 3 m/s 747 mmHg 91%
    03:00 +10°C° 0 mm 3 m/s 747 mmHg 90%
    04:00 +10°C° 0 mm 3 m/s 746 mmHg 91%
    05:00 +9°C° 0 mm 3 m/s 746 mmHg 92%
    06:00 +9°C° 0 mm 3 m/s 746 mmHg 93%
    07:00 +10°C° 0 mm 4 m/s 746 mmHg 89%
    08:00 +11°C° 0 mm 4 m/s 746 mmHg 85%
    09:00 +12°C° 0 mm 5 m/s 746 mmHg 81%
    10:00 +13°C° 0 mm 5 m/s 745 mmHg 77%
    11:00 +14°C° 0 mm 5 m/s 745 mmHg 74%
    12:00 +15°C° 0 mm 6 m/s 745 mmHg 70%
    13:00 +14°C° 0.1 mm 5 m/s 745 mmHg 72%
    14:00 +14°C° 0.1 mm 5 m/s 744 mmHg 75%
    15:00 +14°C° 0.1 mm 4 m/s 744 mmHg 77%
    16:00 +13°C° 0.1 mm 4 m/s 744 mmHg 81%
    17:00 +11°C° 0.1 mm 4 m/s 744 mmHg 85%
    18:00 +10°C° 0.1 mm 4 m/s 744 mmHg 89%
    19:00 +10°C° 0 mm 4 m/s 744 mmHg 90%
    20:00 +10°C° 0 mm 4 m/s 745 mmHg 91%
    21:00 +8°C° 0 mm 4 m/s 745 mmHg 92%
    22:00 +8°C° 0 mm 4 m/s 745 mmHg 92%
    23:00 +8°C° 0 mm 4 m/s 745 mmHg 93%
    Voir plus